Weather in Ivanovka

Russia / Kursk Oblast     51°26′18″N   36°43′44″E
temp.,
°C
wind,
m/s
gust,
m/s
humid.,
%
clouds,
%
prec.,
mm/h
press.,
hPa
HPBL,
m
25 february, thu
thu2500:00−9ssw4895100 0.3 1033267
03:00−8ssw4896100 0.6 1031224
06:00−6sw4895100 0.1 1029253
09:00−1wsw61196100 0.3 1027444
12:00+1wsw511100100 0.0 1025329
15:00+2wsw612100100 0.1 1023346
18:00+2w513100100 0.1 1022323
21:00+2w51199100 0.1 1022283
26 february, fri
fri2600:00+2wnw51299100 0.3 1022284
03:00+2wnw51099100 0.3 1022234
06:00+2wnw510100100 0.0 1021260
09:00+2w51199100 0.0 1020328
12:00+2wsw613100100 0.0 1018389
15:00+2w714100100 0.0 1017458
18:00+2w61499100 0.0 1015376
21:00+2w51399100 0.2 1015370
27 february, sat
sat2700:00+1w5119797 0.0 1013361
03:00+1w5119798 0.0 1013383
06:00+1w61298100 0.0 1011478
09:00+1wnw61298100 0.1 1010563
12:00+1w612100100 0.1 1010616
15:00+1w51199100 0.2 1010508
18:00+1wnw51097100 0.1 1010484
21:000wnw4898100 0.2 1011352
28 february, sun
sun2800:000nw4798100 0.3 1011330
03:00−1nw379895 0.6 1013248
06:00−2n389688 0.1 1014244
09:00−1n369393 0.1 1016617
12:000n579397 0.1 1018645
15:000n578699 0.3 1019807
18:00−1nnw4893100 0.1 1020480
21:00−2nnw499598 0.2 1023412
1 march, mon
mon100:00−3n489486 0.1 1025414
03:00−4nnw369588 0.1 1026175
06:00−4nnw379597 0.1 1027295
09:00−4n359599 0.1 1029296
12:00−2n358292 0.1 1031787
15:00−2nnw357994 0.1 1031873
18:00−3wnw248887 0.0 103192
21:00−5wnw239263 0.0 103266